• In Netherlands
  • List of Countries
  • For 7 days
  • Water Temperature
  • Satellite Maps
  • Weather Map
  • Weather Widgets
  • user-avatar
    Login

    Hourly Weather San Juan

    Today, 23 February, Thursday

    Time Temperature Precipitation Wind Pressure Humidity
    00:00 +30°C° 0.3 mm 3 mps 705 mmHg 40%
    01:00 +30°C° 0.3 mm 2 mps 705 mmHg 42%
    02:00 +29°C° 0.2 mm 2 mps 705 mmHg 42%
    03:00 +29°C° 0.2 mm 2 mps 705 mmHg 42%
    04:00 +28°C° 0.2 mm 2 mps 705 mmHg 43%
    05:00 +30°C° 0.1 mm 2 mps 706 mmHg 40%
    06:00 +31°C° 0.1 mm 2 mps 706 mmHg 37%
    07:00 +32°C° 0.1 mm 2 mps 706 mmHg 34%
    08:00 +34°C° 0 mm 2 mps 706 mmHg 31%
    09:00 +36°C° 0 mm 2 mps 706 mmHg 28%
    10:00 +37°C° 0 mm 2 mps 706 mmHg 26%
    11:00 +38°C° 0 mm 2 mps 706 mmHg 24%
    12:00 +39°C° 0 mm 2 mps 705 mmHg 22%
    13:00 +40°C° 0 mm 3 mps 705 mmHg 20%
    14:00 +40°C° 0 mm 3 mps 704 mmHg 20%
    15:00 +40°C° 0 mm 3 mps 704 mmHg 20%
    16:00 +40°C° 0 mm 3 mps 703 mmHg 20%
    17:00 +38°C° 0.1 mm 3 mps 703 mmHg 22%
    18:00 +36°C° 0.1 mm 3 mps 704 mmHg 25%
    19:00 +34°C° 0.1 mm 3 mps 704 mmHg 28%
    20:00 +34°C° 0.2 mm 3 mps 704 mmHg 31%
    21:00 +33°C° 0.2 mm 3 mps 705 mmHg 33%
    22:00 +31°C° 0.2 mm 3 mps 705 mmHg 36%
    23:00 +31°C° 0.3 mm 3 mps 705 mmHg 38%

    Tomorrow, 24 February, Friday

    Time Temperature Precipitation Wind Pressure Humidity
    00:00 +30°C° 0.3 mm 3 mps 705 mmHg 40%
    01:00 +30°C° 0.3 mm 3 mps 705 mmHg 41%
    02:00 +29°C° 0.1 mm 3 mps 704 mmHg 42%
    03:00 +29°C° 0.1 mm 3 mps 704 mmHg 43%
    04:00 +28°C° 0.1 mm 3 mps 704 mmHg 44%
    05:00 +29°C° 0.1 mm 3 mps 705 mmHg 41%
    06:00 +30°C° 0.1 mm 3 mps 705 mmHg 38%
    07:00 +31°C° 0.1 mm 2 mps 706 mmHg 35%
    08:00 +34°C° 0.1 mm 2 mps 706 mmHg 32%
    09:00 +35°C° 0.1 mm 2 mps 706 mmHg 29%
    10:00 +37°C° 0.1 mm 2 mps 706 mmHg 26%
    11:00 +38°C° 0.1 mm 2 mps 705 mmHg 24%
    12:00 +38°C° 0.1 mm 2 mps 705 mmHg 22%
    13:00 +39°C° 0.1 mm 2 mps 704 mmHg 20%
    14:00 +39°C° 0.1 mm 3 mps 704 mmHg 20%
    15:00 +39°C° 0.1 mm 3 mps 703 mmHg 20%
    16:00 +39°C° 0.1 mm 3 mps 703 mmHg 20%
    17:00 +38°C° 0.1 mm 3 mps 703 mmHg 23%
    18:00 +36°C° 0.1 mm 3 mps 703 mmHg 26%
    19:00 +34°C° 0.1 mm 3 mps 704 mmHg 29%
    20:00 +34°C° 0.4 mm 3 mps 704 mmHg 32%
    21:00 +33°C° 0.4 mm 3 mps 705 mmHg 35%
    22:00 +31°C° 0.4 mm 3 mps 705 mmHg 38%
    23:00 +31°C° 0.4 mm 3 mps 705 mmHg 41%

    Day after tomorrow, 25 February, Saturday

    Time Temperature Precipitation Wind Pressure Humidity
    00:00 +30°C° 0.4 mm 3 mps 705 mmHg 43%
    01:00 +30°C° 0.4 mm 3 mps 705 mmHg 46%
    02:00 +29°C° 0.2 mm 3 mps 704 mmHg 46%
    03:00 +29°C° 0.2 mm 2 mps 704 mmHg 46%
    04:00 +28°C° 0.2 mm 2 mps 704 mmHg 46%
    05:00 +29°C° 0.2 mm 2 mps 705 mmHg 43%
    06:00 +30°C° 0.2 mm 2 mps 705 mmHg 40%
    07:00 +31°C° 0.2 mm 2 mps 706 mmHg 37%
    08:00 +32°C° 0.5 mm 2 mps 706 mmHg 36%
    09:00 +34°C° 0.5 mm 2 mps 706 mmHg 34%
    10:00 +35°C° 0.5 mm 2 mps 706 mmHg 33%
    11:00 +36°C° 0.6 mm 2 mps 706 mmHg 32%
    12:00 +36°C° 0.6 mm 2 mps 705 mmHg 30%
    13:00 +37°C° 0.6 mm 2 mps 704 mmHg 29%
    14:00 +37°C° 0.6 mm 2 mps 704 mmHg 29%
    15:00 +37°C° 0.6 mm 2 mps 703 mmHg 28%
    16:00 +37°C° 0.6 mm 2 mps 703 mmHg 28%
    17:00 +36°C° 0.5 mm 2 mps 703 mmHg 32%
    18:00 +34°C° 0.5 mm 2 mps 703 mmHg 36%
    19:00 +31°C° 0.5 mm 2 mps 703 mmHg 40%
    20:00 +31°C° 0.7 mm 2 mps 704 mmHg 42%
    21:00 +30°C° 0.7 mm 2 mps 704 mmHg 44%
    22:00 +30°C° 0.7 mm 2 mps 704 mmHg 46%
    23:00 +29°C° 0.6 mm 2 mps 704 mmHg 48%

    26 February, Sunday

    Time Temperature Precipitation Wind Pressure Humidity
    00:00 +29°C° 0.6 mm 2 mps 704 mmHg 50%
    01:00 +28°C° 0.6 mm 2 mps 703 mmHg 51%
    02:00 +28°C° 0.4 mm 2 mps 703 mmHg 54%
    03:00 +27°C° 0.4 mm 1 mps 703 mmHg 56%
    04:00 +26°C° 0.4 mm 1 mps 702 mmHg 58%
    05:00 +27°C° 0.3 mm 1 mps 703 mmHg 55%
    06:00 +28°C° 0.3 mm 1 mps 703 mmHg 52%
    07:00 +29°C° 0.3 mm 1 mps 704 mmHg 49%
    08:00 +31°C° 0.3 mm 1 mps 704 mmHg 45%
    09:00 +32°C° 0.3 mm 2 mps 704 mmHg 40%
    10:00 +34°C° 0.3 mm 2 mps 703 mmHg 36%
    11:00 +35°C° 0.3 mm 2 mps 703 mmHg 34%
    12:00 +36°C° 0.3 mm 2 mps 702 mmHg 32%
    13:00 +37°C° 0.3 mm 2 mps 702 mmHg 30%
    14:00 +37°C° 0.5 mm 2 mps 701 mmHg 29%
    15:00 +37°C° 0.5 mm 2 mps 701 mmHg 29%
    16:00 +38°C° 0.5 mm 2 mps 701 mmHg 29%
    17:00 +36°C° 0.8 mm 2 mps 701 mmHg 33%
    18:00 +34°C° 0.8 mm 2 mps 702 mmHg 37%
    19:00 +31°C° 0.8 mm 3 mps 702 mmHg 41%
    20:00 +31°C° 0.7 mm 2 mps 703 mmHg 44%
    21:00 +30°C° 0.7 mm 2 mps 703 mmHg 48%
    22:00 +29°C° 0.7 mm 2 mps 703 mmHg 51%
    23:00 +28°C° 0.3 mm 2 mps 703 mmHg 54%

    27 February, Monday

    Time Temperature Precipitation Wind Pressure Humidity
    00:00 +28°C° 0.3 mm 2 mps 703 mmHg 57%
    01:00 +27°C° 0.3 mm 1 mps 703 mmHg 60%
    02:00 +27°C° 0.2 mm 1 mps 703 mmHg 63%
    03:00 +26°C° 0.2 mm 1 mps 703 mmHg 66%
    04:00 +26°C° 0.2 mm 1 mps 703 mmHg 69%
    05:00 +27°C° 0 mm 1 mps 703 mmHg 64%
    06:00 +28°C° 0 mm 1 mps 704 mmHg 59%
    07:00 +29°C° 0 mm 1 mps 704 mmHg 54%
    08:00 +30°C° 0.1 mm 2 mps 705 mmHg 49%
    09:00 +33°C° 0.1 mm 3 mps 705 mmHg 44%
    10:00 +34°C° 0.1 mm 3 mps 705 mmHg 39%
    11:00 +35°C° 0.5 mm 4 mps 704 mmHg 37%
    12:00 +36°C° 0.5 mm 4 mps 704 mmHg 34%
    13:00 +37°C° 0.5 mm 4 mps 703 mmHg 32%
    14:00 +37°C° 0.7 mm 5 mps 703 mmHg 33%
    15:00 +37°C° 0.7 mm 5 mps 703 mmHg 33%
    16:00 +37°C° 0.7 mm 5 mps 702 mmHg 34%
    17:00 +35°C° 1.2 mm 5 mps 703 mmHg 39%
    18:00 +34°C° 1.2 mm 5 mps 703 mmHg 44%
    19:00 +32°C° 1.2 mm 4 mps 703 mmHg 50%
    20:00 +32°C° 1.3 mm 4 mps 704 mmHg 53%
    21:00 +30°C° 1.3 mm 3 mps 704 mmHg 56%
    22:00 +29°C° 1.3 mm 3 mps 705 mmHg 59%
    23:00 +28°C° 1 mm 3 mps 704 mmHg 60%

    28 February, Tuesday

    Time Temperature Precipitation Wind Pressure Humidity
    00:00 +28°C° 1 mm 2 mps 704 mmHg 62%
    01:00 +27°C° 1 mm 2 mps 704 mmHg 63%
    02:00 +27°C° 0.8 mm 2 mps 704 mmHg 65%
    03:00 +26°C° 0.8 mm 2 mps 704 mmHg 66%
    04:00 +26°C° 0.8 mm 1 mps 703 mmHg 68%
    05:00 +27°C° 0.4 mm 1 mps 704 mmHg 63%
    06:00 +28°C° 0.4 mm 1 mps 704 mmHg 57%
    07:00 +27°C° 0.4 mm 0 mps 705 mmHg 52%
    08:00 +30°C° 0 mm 1 mps 704 mmHg 47%
    09:00 +32°C° 0 mm 1 mps 704 mmHg 41%
    10:00 +33°C° 0 mm 1 mps 704 mmHg 35%
    11:00 +35°C° 0 mm 2 mps 703 mmHg 32%
    12:00 +36°C° 0 mm 2 mps 702 mmHg 29%
    13:00 +37°C° 0 mm 2 mps 701 mmHg 26%
    14:00 +38°C° 0.1 mm 3 mps 701 mmHg 25%
    15:00 +38°C° 0.1 mm 3 mps 700 mmHg 25%
    16:00 +38°C° 0.1 mm 3 mps 699 mmHg 24%
    17:00 +36°C° 0.1 mm 2 mps 700 mmHg 28%
    18:00 +34°C° 0.1 mm 2 mps 700 mmHg 33%
    19:00 +31°C° 0.1 mm 2 mps 700 mmHg 37%
    20:00 +31°C° 0.1 mm 2 mps 700 mmHg 38%
    21:00 +30°C° 0.1 mm 2 mps 700 mmHg 39%
    22:00 +30°C° 0.1 mm 2 mps 701 mmHg 41%
    23:00 +30°C° 0 mm 2 mps 700 mmHg 43%
    Show more